Starlink 33878

operational
NORAD ID: 63862 Int'l Des: 2025-093 Owner: SPXS Country: US Constellation: starlink
LEOCIRCULAR

关于 Starlink 33878

正在加载描述...

实时位置

正在加载3D地球...

即将过境

高度历史

Altitude vs Time

uPlot chart will show altitude changes over time

两行轨道根数

1 63862U 25093AC 25349.62445781 .00012840 00000-0 47523-3 0 9993
2 63862 43.0006 192.7706 0001123 264.9337 95.1386 15.27584484 35102
Epoch: Dec 15, 2025 • Age: 37 hours

当前状态

高度 488.8 km
速度 7.62 km/s
星下点 -25.54°S, 111.86°W
发射日期 May 7, 2025
运行时间 0.6 years
类型 internet

技术详情

分类 Payload
质量 575.00 kg
干质量 530.00 kg
总质量 575.00 kg
长度 0.30 m
直径 4.10 m
跨度 29.00 m
形状 Box + pan
制造商 SPXS
平台类型 Starlink V2MO
阶段状态 In Orbit
所有者/国家 SPXS/US

大型星座

Loading constellations...